QPF
0.00 0.00 0.01 0.01 0.01 0.02 0.03 0.03 0.02 0.02 0.02 0.01 0.01 0.01 0.01 0.01 0.01 0.01 0.02 0.03 0.05 0.04 0.04 0.04 0.04 0.05 0.03 0.03 0.03 0.03 0.05 0.05 0.03 0.03 0.02 0.02 0.03 0.03 0.05 0.08 0.11 0.06 0.05
0.00 0.00 0.01 0.01 0.01 0.02 0.02 0.02 0.02 0.01 0.01 0.01 0.00 0.01 0.01 0.01 0.01 0.01 0.02 0.03 0.03 0.04 0.04 0.04 0.04 0.05 0.05 0.04 0.04 0.04 0.04 0.04 0.04 0.03 0.04 0.03 0.03 0.05 0.08 0.12 0.15 0.06 0.04
0.00 0.00 0.00 0.01 0.01 0.01 0.01 0.01 0.01 0.01 0.01 0.01 0.01 0.01 0.01 0.01 0.01 0.01 0.01 0.02 0.02 0.03 0.03 0.03 0.03 0.04 0.05 0.06 0.05 0.04 0.03 0.03 0.05 0.08 0.11 0.05 0.02 0.05 0.09 0.12 0.12 0.06 0.03
0.00 0.00 0.00 0.00 0.01 0.01 0.01 0.01 0.01 0.02 0.02 0.01 0.01 0.01 0.01 0.01 0.01 0.02 0.01 0.02 0.02 0.02 0.02 0.02 0.03 0.02 0.03 0.05 0.06 0.04 0.03 0.04 0.09 0.19 0.19 0.07 0.02 0.03 0.06 0.08 0.08 0.04 0.05
0.00 0.00 0.00 0.00 0.01 0.01 0.01 0.01 0.02 0.02 0.01 0.01 0.01 0.01 0.01 0.01 0.02 0.02 0.01 0.02 0.02 0.02 0.02 0.02 0.02 0.02 0.02 0.02 0.03 0.03 0.03 0.04 0.11 0.19 0.15 0.11 0.06 0.04 0.05 0.05 0.05 0.05 0.07
0.00 0.00 0.00 0.00 0.01 0.01 0.01 0.01 0.02 0.01 0.01 0.01 0.01 0.01 0.02 0.02 0.02 0.02 0.01 0.02 0.02 0.03 0.02 0.01 0.01 0.01 0.02 0.02 0.01 0.02 0.02 0.06 0.14 0.10 0.09 0.12 0.05 0.04 0.04 0.04 0.05 0.07 0.09
0.00 0.00 0.00 0.00 0.01 0.01 0.01 0.01 0.01 0.01 0.01 0.01 0.01 0.01 0.01 0.02 0.01 0.02 0.02 0.02 0.02 0.02 0.01 0.01 0.01 0.02 0.02 0.01 0.01 0.01 0.02 0.06 0.10 0.06 0.10 0.11 0.04 0.05 0.05 0.04 0.05 0.10 0.12
0.00 0.00 0.00 0.01 0.01 0.01 0.01 0.01 0.01 0.01 0.01 0.01 0.01 0.01 0.02 0.02 0.02 0.02 0.02 0.02 0.02 0.01 0.01 0.01 0.02 0.02 0.01 0.01 0.01 0.01 0.02 0.05 0.05 0.04 0.06 0.05 0.02 0.04 0.05 0.04 0.05 0.12 0.11
0.02 0.00 0.00 0.01 0.01 0.01 0.01 0.01 0.01 0.01 0.01 0.01 0.01 0.01 0.01 0.02 0.02 0.02 0.01 0.01 0.01 0.01 0.01 0.01 0.01 0.01 0.00 0.01 0.01 0.01 0.02 0.04 0.06 0.06 0.07 0.03 0.02 0.06 0.08 0.06 0.06 0.12 0.10
0.03 0.01 0.03 0.03 0.02 0.02 0.01 0.01 0.02 0.02 0.01 0.01 0.01 0.01 0.01 0.01 0.01 0.01 0.01 0.01 0.01 0.01 0.01 0.01 0.01 0.01 0.00 0.01 0.01 0.01 0.01 0.04 0.11 0.12 0.07 0.02 0.03 0.07 0.14 0.14 0.10 0.12 0.10
0.04 0.04 0.05 0.05 0.03 0.02 0.02 0.02 0.02 0.02 0.02 0.02 0.01 0.01 0.02 0.04 0.04 0.02 0.02 0.01 0.01 0.01 0.01 0.01 0.01 0.01 0.01 0.01 0.01 0.01 0.03 0.05 0.11 0.10 0.07 0.04 0.03 0.04 0.06 0.11 0.08 0.06 0.06
0.04 0.04 0.04 0.06 0.05 0.04 0.04 0.05 0.05 0.05 0.03 0.05 0.05 0.03 0.07 0.08 0.08 0.06 0.02 0.01 0.01 0.01 0.00 0.00 0.01 0.01 0.02 0.03 0.02 0.04 0.08 0.07 0.08 0.07 0.08 0.04 0.02 0.02 0.03 0.04 0.05 0.05 0.04
0.04 0.04 0.04 0.10 0.11 0.10 0.09 0.07 0.07 0.07 0.07 0.09 0.07 0.06 0.08 0.05 0.05 0.06 0.02 0.02 0.02 0.02 0.03 0.02 0.02 0.03 0.04 0.04 0.03 0.09 0.12 0.03 0.05 0.05 0.07 0.03 0.03 0.02 0.01 0.01 0.02 0.02 0.03
0.05 0.04 0.03 0.07 0.11 0.10 0.07 0.07 0.06 0.05 0.05 0.07 0.08 0.05 0.05 0.06 0.07 0.07 0.08 0.07 0.06 0.07 0.07 0.05 0.04 0.04 0.02 0.01 0.01 0.03 0.03 0.03 0.03 0.07 0.10 0.03 0.01 0.02 0.02 0.02 0.02 0.02 0.02
0.07 0.07 0.06 0.06 0.07 0.07 0.08 0.06 0.05 0.05 0.05 0.06 0.06 0.06 0.05 0.05 0.07 0.08 0.09 0.08 0.06 0.05 0.05 0.05 0.03 0.03 0.02 0.01 0.01 0.02 0.02 0.02 0.03 0.03 0.04 0.02 0.01 0.01 0.02 0.03 0.03 0.03 0.02
0.08 0.11 0.09 0.08 0.08 0.07 0.06 0.06 0.07 0.06 0.08 0.07 0.05 0.05 0.04 0.05 0.08 0.09 0.08 0.07 0.06 0.06 0.10 0.05 0.03 0.03 0.04 0.04 0.03 0.03 0.02 0.02 0.01 0.01 0.04 0.03 0.01 0.01 0.02 0.02 0.03 0.03 0.05
0.07 0.10 0.08 0.07 0.08 0.07 0.06 0.05 0.06 0.08 0.08 0.09 0.08 0.07 0.04 0.05 0.07 0.06 0.07 0.06 0.06 0.06 0.06 0.04 0.05 0.05 0.05 0.04 0.05 0.04 0.04 0.04 0.02 0.02 0.03 0.05 0.04 0.03 0.03 0.02 0.03 0.04 0.06
0.08 0.09 0.09 0.07 0.07 0.07 0.06 0.06 0.05 0.06 0.08 0.09 0.09 0.07 0.05 0.05 0.05 0.05 0.06 0.06 0.06 0.04 0.06 0.07 0.06 0.07 0.07 0.06 0.07 0.07 0.05 0.05 0.04 0.03 0.03 0.05 0.07 0.07 0.05 0.03 0.04 0.06 0.08
0.08 0.10 0.10 0.11 0.09 0.08 0.07 0.05 0.06 0.06 0.07 0.07 0.09 0.06 0.06 0.06 0.03 0.04 0.06 0.07 0.05 0.06 0.06 0.05 0.07 0.07 0.07 0.07 0.04 0.06 0.05 0.04 0.06 0.06 0.06 0.07 0.08 0.09 0.08 0.06 0.04 0.04 0.05
0.06 0.07 0.08 0.12 0.13 0.14 0.12 0.09 0.09 0.07 0.07 0.07 0.08 0.07 0.05 0.04 0.04 0.05 0.06 0.06 0.06 0.07 0.07 0.06 0.08 0.06 0.07 0.06 0.04 0.06 0.07 0.07 0.08 0.08 0.07 0.08 0.09 0.09 0.10 0.09 0.08 0.06 0.04
0.05 0.07 0.08 0.11 0.12 0.15 0.13 0.09 0.07 0.06 0.07 0.07 0.07 0.07 0.06 0.04 0.05 0.06 0.07 0.07 0.06 0.08 0.06 0.04 0.04 0.06 0.05 0.03 0.05 0.07 0.08 0.06 0.08 0.08 0.06 0.08 0.09 0.09 0.11 0.10 0.10 0.10 0.08
0.05 0.07 0.08 0.10 0.11 0.12 0.11 0.09 0.07 0.07 0.06 0.06 0.08 0.10 0.07 0.05 0.04 0.04 0.06 0.06 0.06 0.06 0.05 0.05 0.05 0.08 0.07 0.03 0.04 0.08 0.10 0.12 0.11 0.05 0.04 0.04 0.06 0.06 0.06 0.06 0.08 0.09 0.09
0.07 0.08 0.08 0.09 0.10 0.12 0.12 0.11 0.10 0.09 0.09 0.09 0.10 0.10 0.08 0.06 0.03 0.02 0.03 0.04 0.04 0.03 0.05 0.06 0.05 0.05 0.07 0.05 0.03 0.04 0.09 0.11 0.10 0.07 0.03 0.03 0.03 0.05 0.05 0.05 0.05 0.05 0.05
0.07 0.09 0.11 0.10 0.11 0.13 0.12 0.11 0.08 0.06 0.08 0.08 0.08 0.08 0.07 0.06 0.04 0.02 0.03 0.03 0.03 0.03 0.06 0.04 0.05 0.04 0.05 0.04 0.03 0.02 0.03 0.06 0.06 0.09 0.07 0.04 0.02 0.02 0.03 0.02 0.03 0.04 0.05
0.06 0.08 0.11 0.12 0.13 0.17 0.17 0.12 0.11 0.09 0.08 0.08 0.09 0.10 0.08 0.06 0.04 0.03 0.03 0.03 0.03 0.03 0.04 0.04 0.05 0.04 0.03 0.03 0.03 0.02 0.02 0.02 0.02 0.05 0.08 0.05 0.02 0.01 0.01 0.01 0.01 0.02 0.02
0.09 0.09 0.10 0.13 0.14 0.17 0.20 0.16 0.13 0.10 0.09 0.09 0.10 0.10 0.07 0.05 0.05 0.04 0.03 0.03 0.02 0.03 0.03 0.04 0.04 0.03 0.03 0.03 0.03 0.02 0.01 0.01 0.01 0.02 0.04 0.04 0.03 0.01 0.01 0.00 0.00 0.01 0.01
MSLP
1006.98 1007.09 1007.37 1007.82 1008.39 1009.03 1009.64 1010.16 1010.56 1010.83 1011.01 1011.14 1011.28 1011.46 1011.70 1011.97 1012.25 1012.50 1012.69 1012.81 1012.86 1012.88 1012.90 1012.95 1013.04 1013.18 1013.35 1013.53 1013.70 1013.83 1013.94 1014.02 1014.10 1014.20 1014.33 1014.49 1014.70 1014.93 1015.16 1015.39 1015.61 1015.80 1015.98
1006.90 1007.16 1007.57 1008.11 1008.74 1009.37 1009.94 1010.39 1010.72 1010.94 1011.09 1011.23 1011.42 1011.66 1011.96 1012.29 1012.60 1012.86 1013.02 1013.10 1013.12 1013.10 1013.10 1013.14 1013.24 1013.39 1013.58 1013.76 1013.93 1014.06 1014.15 1014.21 1014.28 1014.36 1014.49 1014.67 1014.89 1015.14 1015.40 1015.66 1015.91 1016.14 1016.34
1006.75 1007.17 1007.73 1008.39 1009.08 1009.72 1010.26 1010.65 1010.92 1011.08 1011.21 1011.36 1011.57 1011.86 1012.20 1012.56 1012.89 1013.14 1013.28 1013.33 1013.31 1013.28 1013.26 1013.31 1013.41 1013.57 1013.77 1013.95 1014.11 1014.22 1014.29 1014.35 1014.40 1014.49 1014.63 1014.82 1015.05 1015.32 1015.61 1015.89 1016.16 1016.42 1016.65
1006.55 1007.14 1007.86 1008.64 1009.40 1010.07 1010.59 1010.95 1011.16 1011.28 1011.39 1011.53 1011.76 1012.07 1012.44 1012.81 1013.13 1013.36 1013.48 1013.51 1013.48 1013.44 1013.43 1013.48 1013.60 1013.77 1013.95 1014.13 1014.27 1014.36 1014.42 1014.47 1014.53 1014.63 1014.78 1014.99 1015.24 1015.52 1015.81 1016.10 1016.38 1016.66 1016.93
1006.34 1007.08 1007.94 1008.84 1009.69 1010.40 1010.93 1011.27 1011.45 1011.54 1011.63 1011.77 1011.99 1012.31 1012.67 1013.04 1013.35 1013.56 1013.66 1013.68 1013.65 1013.62 1013.63 1013.70 1013.82 1013.99 1014.17 1014.33 1014.45 1014.52 1014.58 1014.63 1014.70 1014.83 1015.01 1015.23 1015.49 1015.77 1016.05 1016.33 1016.60 1016.88 1017.16
1006.14 1007.01 1007.99 1009.01 1009.93 1010.69 1011.24 1011.58 1011.75 1011.83 1011.90 1012.03 1012.25 1012.56 1012.91 1013.26 1013.54 1013.74 1013.83 1013.85 1013.83 1013.82 1013.86 1013.95 1014.09 1014.26 1014.43 1014.56 1014.66 1014.72 1014.77 1014.84 1014.94 1015.10 1015.31 1015.56 1015.83 1016.09 1016.35 1016.59 1016.83 1017.09 1017.37
1006.01 1006.96 1008.04 1009.13 1010.12 1010.93 1011.50 1011.85 1012.02 1012.10 1012.17 1012.30 1012.51 1012.80 1013.13 1013.45 1013.72 1013.89 1013.98 1014.01 1014.02 1014.04 1014.11 1014.23 1014.38 1014.55 1014.69 1014.81 1014.88 1014.93 1014.99 1015.08 1015.22 1015.43 1015.68 1015.96 1016.23 1016.47 1016.69 1016.88 1017.07 1017.29 1017.54
1005.98 1006.97 1008.09 1009.22 1010.25 1011.08 1011.67 1012.03 1012.22 1012.31 1012.39 1012.52 1012.73 1013.01 1013.33 1013.62 1013.86 1014.03 1014.11 1014.15 1014.19 1014.24 1014.34 1014.48 1014.65 1014.81 1014.94 1015.03 1015.08 1015.13 1015.20 1015.31 1015.50 1015.76 1016.05 1016.35 1016.63 1016.86 1017.03 1017.17 1017.31 1017.47 1017.68
1006.07 1007.04 1008.15 1009.28 1010.30 1011.13 1011.72 1012.09 1012.29 1012.40 1012.51 1012.66 1012.88 1013.17 1013.47 1013.75 1013.98 1014.13 1014.22 1014.27 1014.32 1014.40 1014.52 1014.68 1014.85 1015.00 1015.11 1015.18 1015.22 1015.26 1015.34 1015.48 1015.71 1016.00 1016.34 1016.67 1016.96 1017.18 1017.33 1017.42 1017.50 1017.61 1017.79
1006.26 1007.18 1008.24 1009.31 1010.29 1011.08 1011.65 1012.02 1012.23 1012.37 1012.51 1012.70 1012.95 1013.25 1013.56 1013.84 1014.06 1014.20 1014.29 1014.34 1014.41 1014.50 1014.64 1014.80 1014.96 1015.10 1015.19 1015.24 1015.26 1015.29 1015.37 1015.54 1015.79 1016.12 1016.49 1016.85 1017.16 1017.38 1017.52 1017.59 1017.64 1017.72 1017.86
1006.52 1007.36 1008.33 1009.32 1010.21 1010.93 1011.46 1011.82 1012.04 1012.21 1012.40 1012.63 1012.92 1013.26 1013.59 1013.88 1014.10 1014.25 1014.33 1014.39 1014.46 1014.55 1014.68 1014.84 1014.99 1015.11 1015.19 1015.21 1015.21 1015.23 1015.31 1015.47 1015.73 1016.08 1016.47 1016.86 1017.19 1017.43 1017.58 1017.67 1017.71 1017.78 1017.92
1006.81 1007.56 1008.43 1009.30 1010.08 1010.72 1011.20 1011.52 1011.75 1011.96 1012.19 1012.47 1012.82 1013.20 1013.56 1013.88 1014.12 1014.28 1014.37 1014.43 1014.49 1014.58 1014.70 1014.84 1014.97 1015.07 1015.13 1015.13 1015.12 1015.11 1015.17 1015.32 1015.57 1015.91 1016.30 1016.70 1017.06 1017.34 1017.53 1017.65 1017.74 1017.84 1017.98
1007.08 1007.75 1008.51 1009.26 1009.94 1010.48 1010.89 1011.18 1011.41 1011.64 1011.92 1012.26 1012.66 1013.09 1013.50 1013.85 1014.11 1014.29 1014.40 1014.46 1014.52 1014.60 1014.71 1014.83 1014.95 1015.03 1015.06 1015.05 1015.02 1014.99 1015.02 1015.14 1015.36 1015.67 1016.05 1016.46 1016.84 1017.16 1017.41 1017.60 1017.74 1017.89 1018.08
1007.29 1007.90 1008.57 1009.21 1009.78 1010.24 1010.59 1010.85 1011.09 1011.33 1011.64 1012.03 1012.47 1012.94 1013.39 1013.78 1014.08 1014.29 1014.42 1014.51 1014.58 1014.65 1014.75 1014.86 1014.96 1015.02 1015.05 1015.02 1014.97 1014.93 1014.93 1015.01 1015.18 1015.46 1015.81 1016.20 1016.60 1016.96 1017.27 1017.53 1017.76 1017.98 1018.21
1007.43 1008.00 1008.60 1009.17 1009.66 1010.05 1010.35 1010.59 1010.82 1011.08 1011.41 1011.82 1012.28 1012.78 1013.26 1013.68 1014.02 1014.27 1014.44 1014.56 1014.65 1014.74 1014.83 1014.93 1015.03 1015.08 1015.10 1015.07 1015.02 1014.96 1014.94 1014.99 1015.12 1015.35 1015.66 1016.03 1016.42 1016.81 1017.17 1017.50 1017.80 1018.09 1018.38
1007.49 1008.05 1008.61 1009.13 1009.57 1009.93 1010.21 1010.44 1010.68 1010.94 1011.27 1011.67 1012.13 1012.62 1013.11 1013.55 1013.92 1014.21 1014.43 1014.59 1014.72 1014.84 1014.95 1015.06 1015.15 1015.21 1015.23 1015.21 1015.17 1015.11 1015.08 1015.11 1015.20 1015.39 1015.65 1015.99 1016.36 1016.75 1017.15 1017.52 1017.88 1018.22 1018.55
1007.49 1008.06 1008.60 1009.10 1009.52 1009.87 1010.16 1010.42 1010.66 1010.93 1011.24 1011.61 1012.04 1012.49 1012.95 1013.39 1013.78 1014.11 1014.38 1014.60 1014.78 1014.94 1015.08 1015.20 1015.30 1015.37 1015.40 1015.40 1015.38 1015.34 1015.33 1015.35 1015.42 1015.57 1015.80 1016.09 1016.43 1016.80 1017.20 1017.59 1017.97 1018.33 1018.67
1007.47 1008.04 1008.58 1009.07 1009.50 1009.88 1010.20 1010.49 1010.76 1011.03 1011.32 1011.65 1012.01 1012.40 1012.81 1013.22 1013.61 1013.97 1014.29 1014.57 1014.82 1015.02 1015.20 1015.34 1015.45 1015.53 1015.58 1015.60 1015.60 1015.60 1015.61 1015.65 1015.73 1015.86 1016.05 1016.30 1016.59 1016.92 1017.28 1017.65 1018.03 1018.38 1018.72
1007.45 1008.01 1008.53 1009.01 1009.47 1009.90 1010.29 1010.64 1010.95 1011.24 1011.50 1011.77 1012.06 1012.36 1012.69 1013.05 1013.43 1013.81 1014.17 1014.51 1014.82 1015.08 1015.29 1015.45 1015.57 1015.66 1015.72 1015.76 1015.80 1015.84 1015.89 1015.96 1016.05 1016.18 1016.34 1016.54 1016.78 1017.06 1017.36 1017.68 1018.01 1018.33 1018.64
1007.43 1007.94 1008.43 1008.91 1009.40 1009.88 1010.35 1010.78 1011.16 1011.48 1011.74 1011.96 1012.16 1012.38 1012.63 1012.92 1013.26 1013.65 1014.05 1014.44 1014.80 1015.10 1015.35 1015.53 1015.66 1015.75 1015.81 1015.87 1015.93 1016.01 1016.10 1016.21 1016.33 1016.46 1016.61 1016.77 1016.95 1017.15 1017.37 1017.62 1017.89 1018.16 1018.43
1007.40 1007.84 1008.27 1008.73 1009.23 1009.78 1010.34 1010.87 1011.33 1011.71 1011.98 1012.17 1012.31 1012.45 1012.61 1012.84 1013.14 1013.51 1013.93 1014.37 1014.77 1015.12 1015.40 1015.60 1015.72 1015.80 1015.86 1015.92 1016.00 1016.11 1016.24 1016.38 1016.53 1016.67 1016.80 1016.92 1017.04 1017.16 1017.30 1017.47 1017.66 1017.88 1018.10
1007.34 1007.67 1008.02 1008.44 1008.95 1009.55 1010.20 1010.83 1011.40 1011.86 1012.17 1012.37 1012.47 1012.55 1012.64 1012.81 1013.07 1013.43 1013.86 1014.32 1014.77 1015.15 1015.45 1015.66 1015.78 1015.85 1015.89 1015.95 1016.03 1016.15 1016.30 1016.47 1016.64 1016.79 1016.90 1016.98 1017.04 1017.09 1017.14 1017.23 1017.34 1017.50 1017.69
1007.23 1007.44 1007.69 1008.05 1008.55 1009.19 1009.91 1010.65 1011.33 1011.88 1012.27 1012.50 1012.61 1012.65 1012.71 1012.83 1013.06 1013.40 1013.83 1014.31 1014.78 1015.19 1015.51 1015.73 1015.85 1015.90 1015.93 1015.97 1016.04 1016.17 1016.33 1016.51 1016.68 1016.83 1016.92 1016.96 1016.97 1016.94 1016.92 1016.93 1016.98 1017.09 1017.25
1007.06 1007.16 1007.31 1007.60 1008.07 1008.72 1009.50 1010.33 1011.11 1011.78 1012.26 1012.55 1012.69 1012.74 1012.78 1012.88 1013.08 1013.41 1013.84 1014.33 1014.81 1015.25 1015.58 1015.80 1015.93 1015.97 1015.99 1016.01 1016.07 1016.19 1016.34 1016.52 1016.70 1016.83 1016.90 1016.91 1016.86 1016.78 1016.69 1016.63 1016.63 1016.69 1016.82
1006.86 1006.87 1006.93 1007.14 1007.57 1008.21 1009.02 1009.92 1010.79 1011.56 1012.14 1012.51 1012.71 1012.80 1012.85 1012.94 1013.13 1013.44 1013.86 1014.35 1014.84 1015.29 1015.64 1015.88 1016.01 1016.05 1016.06 1016.08 1016.13 1016.23 1016.38 1016.55 1016.71 1016.83 1016.89 1016.87 1016.78 1016.65 1016.51 1016.40 1016.34 1016.36 1016.47
1006.68 1006.63 1006.62 1006.76 1007.13 1007.74 1008.55 1009.48 1010.42 1011.26 1011.93 1012.39 1012.67 1012.81 1012.89 1012.99 1013.17 1013.47 1013.87 1014.35 1014.85 1015.30 1015.67 1015.92 1016.07 1016.13 1016.14 1016.16 1016.21 1016.30 1016.44 1016.60 1016.75 1016.86 1016.90 1016.86 1016.75 1016.59 1016.41 1016.26 1016.16 1016.14 1016.21
Thickness
5813 5807 5800 5796 5793 5790 5788 5785 5783 5781 5780 5778 5777 5775 5774 5772 5771 5770 5768 5767 5766 5765 5763 5762 5761 5760 5760 5759 5758 5757 5756 5755 5754 5753 5753 5751 5750 5749 5749 5748 5747 5745 5744
5816 5806 5799 5796 5792 5789 5787 5784 5782 5780 5778 5777 5775 5773 5772 5771 5770 5768 5767 5766 5764 5763 5762 5761 5760 5759 5758 5757 5756 5755 5754 5753 5752 5752 5751 5750 5748 5747 5747 5746 5746 5743 5742
5814 5805 5798 5794 5791 5788 5785 5783 5781 5779 5777 5775 5773 5772 5770 5769 5768 5767 5766 5764 5763 5762 5760 5759 5758 5757 5756 5755 5754 5754 5753 5752 5751 5751 5751 5749 5747 5745 5745 5744 5743 5741 5740
5812 5804 5798 5792 5789 5786 5783 5781 5779 5777 5775 5773 5772 5770 5769 5768 5766 5765 5764 5763 5761 5760 5759 5758 5757 5755 5755 5754 5753 5753 5752 5751 5750 5750 5750 5748 5746 5743 5743 5742 5740 5739 5738
5811 5804 5795 5790 5787 5784 5782 5779 5777 5776 5774 5772 5770 5768 5767 5766 5764 5763 5762 5761 5760 5758 5757 5756 5755 5754 5753 5752 5752 5752 5751 5750 5750 5749 5749 5746 5744 5741 5741 5740 5738 5737 5736
5810 5802 5793 5788 5785 5782 5780 5777 5776 5774 5772 5770 5769 5767 5765 5764 5763 5761 5760 5759 5758 5757 5755 5754 5753 5752 5752 5751 5751 5751 5751 5751 5750 5750 5748 5745 5742 5740 5739 5738 5737 5735 5734
5809 5799 5791 5787 5783 5780 5778 5776 5774 5772 5770 5768 5767 5765 5764 5762 5761 5760 5758 5757 5756 5755 5753 5752 5751 5751 5750 5750 5750 5751 5750 5751 5751 5749 5746 5743 5740 5738 5737 5736 5735 5733 5732
5808 5798 5789 5784 5781 5778 5776 5774 5771 5770 5768 5767 5765 5764 5762 5761 5759 5758 5756 5755 5754 5753 5752 5751 5750 5750 5749 5749 5750 5750 5750 5750 5751 5749 5745 5741 5738 5737 5735 5734 5733 5732 5731
5806 5796 5788 5783 5779 5776 5774 5771 5770 5768 5766 5765 5763 5762 5761 5759 5758 5756 5755 5753 5752 5751 5750 5749 5749 5749 5748 5748 5749 5749 5749 5750 5750 5747 5744 5739 5737 5735 5734 5733 5732 5731 5729
5803 5794 5788 5782 5778 5775 5772 5769 5768 5766 5764 5763 5761 5760 5760 5758 5757 5755 5753 5752 5750 5749 5748 5748 5748 5748 5747 5748 5748 5748 5749 5749 5749 5745 5742 5738 5736 5734 5733 5732 5731 5729 5728
5797 5793 5788 5782 5778 5776 5773 5769 5766 5764 5763 5761 5760 5759 5759 5758 5757 5755 5753 5751 5749 5748 5748 5747 5747 5746 5746 5747 5747 5747 5748 5748 5748 5744 5739 5736 5735 5733 5732 5730 5729 5728 5727
5791 5790 5788 5783 5780 5777 5774 5768 5766 5764 5762 5762 5761 5759 5759 5760 5758 5756 5752 5750 5749 5748 5747 5746 5746 5746 5746 5747 5746 5746 5747 5747 5746 5741 5737 5735 5733 5732 5731 5729 5728 5727 5725
5790 5788 5787 5783 5781 5778 5773 5768 5767 5766 5762 5762 5761 5760 5760 5760 5758 5754 5752 5749 5748 5748 5747 5747 5747 5747 5748 5748 5748 5747 5748 5747 5745 5740 5734 5733 5732 5731 5730 5728 5727 5725 5724
5787 5785 5784 5782 5779 5777 5773 5770 5768 5766 5763 5762 5761 5761 5760 5760 5759 5757 5754 5752 5750 5750 5749 5749 5749 5749 5749 5749 5749 5748 5748 5746 5743 5739 5735 5733 5732 5730 5729 5727 5726 5724 5723
5784 5782 5781 5779 5776 5774 5771 5770 5769 5767 5764 5763 5761 5760 5759 5759 5758 5756 5754 5753 5752 5750 5749 5749 5749 5748 5748 5747 5747 5747 5746 5744 5742 5739 5735 5733 5731 5729 5727 5726 5724 5722 5721
5783 5779 5778 5775 5773 5771 5768 5767 5767 5765 5763 5762 5760 5759 5759 5758 5757 5755 5753 5752 5751 5750 5748 5748 5748 5747 5746 5745 5745 5745 5744 5743 5741 5738 5735 5732 5730 5729 5727 5725 5723 5721 5719
5782 5779 5774 5771 5770 5768 5766 5764 5764 5763 5761 5759 5758 5757 5757 5757 5755 5754 5752 5751 5751 5750 5748 5747 5746 5745 5744 5743 5743 5742 5742 5740 5739 5738 5735 5732 5730 5728 5726 5724 5722 5720 5718
5782 5776 5772 5771 5766 5764 5762 5762 5761 5761 5759 5759 5757 5755 5755 5754 5754 5753 5751 5750 5750 5749 5748 5746 5745 5743 5742 5741 5740 5740 5740 5739 5738 5737 5735 5733 5731 5728 5725 5724 5722 5720 5718
5781 5775 5770 5769 5764 5761 5759 5758 5759 5758 5757 5757 5756 5754 5753 5752 5752 5752 5751 5750 5749 5748 5747 5746 5743 5741 5739 5739 5739 5739 5739 5738 5737 5737 5736 5733 5731 5729 5726 5724 5722 5720 5718
5779 5774 5769 5766 5763 5759 5756 5754 5754 5755 5755 5755 5754 5753 5752 5751 5751 5750 5750 5749 5748 5747 5745 5744 5741 5741 5739 5738 5740 5738 5738 5738 5737 5736 5735 5734 5732 5730 5728 5725 5722 5720 5718
5776 5771 5766 5763 5760 5757 5753 5750 5750 5749 5751 5752 5752 5751 5750 5750 5749 5748 5749 5748 5747 5745 5744 5743 5742 5740 5738 5740 5736 5733 5735 5737 5735 5734 5735 5734 5733 5731 5729 5726 5723 5721 5719
5772 5768 5763 5760 5757 5755 5753 5752 5751 5751 5750 5750 5750 5749 5748 5748 5748 5748 5747 5747 5746 5744 5743 5742 5741 5738 5738 5740 5734 5728 5724 5726 5731 5737 5735 5734 5733 5731 5729 5727 5725 5722 5720
5770 5765 5762 5759 5757 5754 5753 5751 5749 5747 5746 5746 5745 5746 5747 5747 5747 5747 5746 5747 5746 5745 5742 5742 5741 5738 5736 5739 5739 5732 5724 5719 5723 5730 5733 5733 5733 5731 5730 5729 5726 5723 5721
5770 5766 5762 5758 5756 5754 5752 5749 5746 5743 5741 5743 5744 5744 5745 5745 5745 5745 5746 5746 5745 5745 5743 5742 5742 5741 5738 5736 5738 5738 5735 5732 5724 5720 5726 5730 5732 5730 5730 5730 5727 5724 5721
5770 5766 5761 5757 5754 5753 5751 5748 5746 5744 5744 5744 5743 5742 5742 5743 5744 5744 5744 5744 5744 5744 5743 5743 5742 5741 5740 5738 5738 5738 5736 5735 5734 5725 5719 5723 5727 5730 5730 5729 5727 5725 5722
5770 5766 5762 5756 5753 5752 5749 5747 5744 5743 5742 5741 5740 5739 5740 5741 5742 5743 5743 5743 5743 5743 5743 5742 5741 5741 5740 5740 5739 5739 5737 5734 5732 5730 5724 5722 5722 5726 5729 5728 5727 5725 5722